Regional Weather Roundup
Issued by NWS

Home | Current Version | Previous Version | Graphics & Text | Print | Product List | Glossary On
Versions: 1 2 3 4 5 6 7 8 9 10 11 12 13 14 15 16 17 18 19 20 21 22 23 24 25 26 27 28 29 30 31 32 33 34 35 36 37 38 39 40 41 42 43 44 45 46 47 48 49 50
000
ASUS43 KMKX 290200
RWRWI

WISCONSIN REGIONAL WEATHER ROUNDUP
NATIONAL WEATHER SERVICE MILWAUKEE/SULLIVAN WI
900 PM CDT WED JUN 28 2017

NOTE: "FAIR" INDICATES FEW OR NO CLOUDS BELOW 12,000 FEET WITH NO
SIGNIFICANT WEATHER AND/OR OBSTRUCTIONS TO VISIBILITY.

WIZ001-002-006>008-014>016-023>028-290300-
NORTHWEST WISCONSIN

CITY           SKY/WX    TMP DP  RH WIND       PRES   REMARKS
SUPERIOR ARPT  NOT AVBL
ASHLAND        LGT RAIN  64  64 100 E6        29.51F FOG
HAYWARD        LGT RAIN  67  65  93 S8        29.51F
SIREN          CLOUDY    68  67  94 CALM      29.51S
CUMBERLAND     CLOUDY    66  64  94 S7        29.54S
RICE LAKE      CLOUDY    68  66  94 S5        29.55S
CHETEK           N/A     67  67  97 CALM      29.55S
LADYSMITH      CLOUDY    68  67  95 S7        29.57S
EAU CLAIRE     NOT AVBL
MENOMONIE      CLOUDY    68  67  94 SE5       29.55S
NEW RICHMOND   CLEAR     71  62  72 W5        29.55R
OSCEOLA        MOCLDY    72  63  73 W8        29.56R
$$

WIZ003>005-009-010-017-018-290300-
NORTH CENTRAL WISCONSIN

CITY           SKY/WX    TMP DP  RH WIND       PRES   REMARKS
MANITOWISH WTR CLOUDY    64  64 100 S8        29.58F
ARBOR VITAE    CLOUDY    64  63  96 S8        29.59F
WOODRUFF       CLOUDY    64  63  96 S8        29.59F
RHINELANDER    CLOUDY    64  64 100 S5        29.59F
EAGLE RIVER    CLOUDY    63  63 100 SE5       29.61F FOG
LAND O LAKES   CLOUDY    63  63  99 S5        29.63F FOG
PHILLIPS       DRIZZLE   66  66 100 S9        29.55F
TOMAHAWK       NOT AVBL
MEDFORD        CLOUDY    65  64  96 S7        29.58F
MERRILL        LGT RAIN  66  66 100 S3        29.57F
$$

WIZ029-030-035-036-043>047-290300-
CENTRAL WISCONSIN

CITY           SKY/WX    TMP DP  RH WIND       PRES   REMARKS
WAUSAU         CLOUDY    66  65  96 SE6       29.57R
MOSINEE        CLOUDY    66  66 100 S10       29.59F FOG
MARSHFIELD     CLOUDY    66  64  93 S8        29.56F FOG
STEVENS POINT  LGT RAIN  65  65 100 S6        29.62F
WAUPACA        CLOUDY    68  67  98 CALM      29.64R FOG
WAUTOMA        CLOUDY    66  66 100 SE9       29.64R FOG
WISC RAPIDS    LGT RAIN  68  66  93 S6        29.61F FOG
CAMP DOUGLAS   NOT AVBL
$$

WIZ011>013-019>022-031-037>040-048>050-290300-
NORTHEAST WISCONSIN

CITY           SKY/WX    TMP DP  RH WIND       PRES   REMARKS
ANTIGO         DRIZZLE   64  64 100 SE8       29.61F
SHAWANO        CLOUDY    68  64  88 S6        29.63R
OCONTO         CLOUDY    64  62  93 S7        29.64R
STURGEON BAY     N/A     60  59  96 S16G24    29.67R
GREEN BAY      CLOUDY    66  66 100 S7        29.66R
MANITOWOC      LGT RAIN  61  57  88 S16       29.67F FOG
APPLETON       MOCLDY    66  66 100 S6        29.63S
CLINTONVILLE   CLOUDY    64  63  94 S5        29.64R
OSHKOSH        CLOUDY    66  63  90 SW8       29.65R
$$

WIZ032>034-041-042-053>061-290300-
SOUTHWEST WISCONSIN

CITY           SKY/WX    TMP DP  RH WIND       PRES   REMARKS
LA CROSSE      HVY RAIN  71  67  87 CALM      29.62R FOG
SPARTA         TSTM      67  65  94 CALM      29.64R
VIROQUA        CLOUDY    66  65  98 S7        29.64R
BOSCOBEL       CLOUDY    67  65  93 W3        29.64F
PRAIRIE DU CHI CLOUDY    65  64  96 CALM      29.64R
PLATTEVILLE    CLOUDY    67  67 100 S7        29.68F
$$

WIZ056-057-062-063-064-067-068-290300-
SOUTH CENTRAL WISCONSIN

CITY           SKY/WX    TMP DP  RH WIND       PRES   REMARKS
REEDSBURG      CLOUDY    67  66  97 SW7       29.65R
BARABOO/DELLS  CLOUDY    67  64  91 S7        29.65R
LONE ROCK      CLOUDY    68  63  84 N5        29.66R
MINERAL POINT  LGT RAIN  68  68 100 W5        29.69R
MADISON        CLOUDY    67  64  90 S10       29.68R
MIDDLETON      CLOUDY    68  65  92 SW12      29.69R
WATERTOWN      TSTM      62  62 100 SE8       29.66F
MONROE         TSTM      64  63  94 W20G28    29.75R
JANESVILLE     NOT AVBL
$$

WIZ051-052-058>065-066-070>072-290300-
SOUTHEAST WISCONSIN

CITY           SKY/WX    TMP DP  RH WIND       PRES   REMARKS
MILWAUKEE      TSTM      65  63  93 VRB6G22   29.78R FOG
WAUKESHA       RAIN      61  61 100 SE17G24   29.71F FOG
MILWAUKEE/TIMM TSTM      63  59  88 S13       29.76F
RACINE         TSTM      65  61  87 N22G30    29.82R FOG
KENOSHA        TSTM      71  65  81 NW15      29.78R
FOND DU LAC    CLOUDY    66  60  81 SW8       29.68R
SHEBOYGAN      TSTM      64  63  96 SE15      29.59F
WEST BEND      LGT RAIN  61  61 100 S15       29.64F
JUNEAU         CLOUDY    63  59  88 S13       29.68R
$$

LSZ147-162-290300-
LAKE SUPERIOR

STATION/POSITION TIME  TEMP    WIND        PRES    WAVE
                       AIR SEA DIR/SP/G            HT/PER
                 (UTC) (F)     (DEG/KT/KT) (MB)    (FT/S)
W MID LAKE BUOY  0050   47 39   70/ 14/ 16 1002.0F   1/ 2
DEVILS ISLAND    0100   54      80/ 10/ 12 1000.2F
SAXON HARBOR     0130   67     180/  4/ 10  999.3F
$$

LMZ867-665-643>646-290300-
LAKE MICHIGAN

STATION/POSITION TIME  TEMP    WIND        PRES    WAVE
                       AIR SEA DIR/SP/G            HT/PER
                 (UTC) (F)     (DEG/KT/KT) (MB)    (FT/S)
CHAMBERS ISLAND  0140   62     150/  4/ 11 1004.1F
S GREEN BAY BUOY 0130   65     170/ 17/ 19 1003.7F
N MID LAKE BUOY  0050   57 54  170/ 10/ 14 1007.6F   5/ 7
NORTHPORT PIER   0140   60     150/ 10/ 15 1004.7F
KEWAUNEE LAKESHO 0130   58     190/ 18/ 20 1004.4F
SHEBOYGAN LAKESH 0100   57     180/ 22/ 23 1004.5F
PORT WASHINGTON  0140   63     190/  9/ 17 1005.8F
ATWATER BUOY     0009   56 51  300/ 10/ 14 1009.7R
MILWAUKEE LAKESH 0130   63                   N/A
S MID LAKE BUOY  0050   66 60  190/ 14/ 16 1008.0R   4/ 5
KENOSHA   LAKESH 0100   74     200/ 10/ 13 1006.8
$$

TC  - TEMPERATURE IN CELSIUS
VSB - VISIBILITY IN STATUTE MILES
WCI - WIND CHILL INDEX
HX  - HEAT INDEX





USA.gov is the U.S. government's official web portal to all federal, state and local government web resources and services.